Time,TemperatureF,DewpointF,PressureIn,WindDirection,WindDirectionDegrees,WindSpeedMPH,WindSpeedGustMPH,Humidity,HourlyPrecipIn,Conditions,Clouds,dailyrainin,SoftwareType,DateUTC
2013-02-11 00:00:00,41.7,41.1,29.59,SW,215,18.5,18.5,98,0.00,,---,0.04,VWS V14.01,2013-02-11 05:00:00,
2013-02-11 00:01:00,41.7,41.1,29.59,South,170,4.3,7.9,98,0.00,,---,0.00,VWS V14.01,2013-02-11 05:01:00,
2013-02-11 00:03:00,41.8,41.3,29.59,South,170,14.2,14.2,98,0.00,,---,0.00,VWS V14.01,2013-02-11 05:03:00,
2013-02-11 00:08:00,42.0,41.5,29.59,South,170,8.3,8.3,98,0.00,,---,0.00,VWS V14.01,2013-02-11 05:08:00,
2013-02-11 00:13:00,42.0,41.5,29.59,South,170,10.3,10.3,98,0.00,,---,0.00,VWS V14.01,2013-02-11 05:13:00,
2013-02-11 00:18:00,41.8,41.3,29.59,South,170,6.6,6.6,98,0.00,,---,0.00,VWS V14.01,2013-02-11 05:18:00,
2013-02-11 00:23:00,41.8,41.3,29.59,South,170,8.6,8.6,98,0.00,,---,0.00,VWS V14.01,2013-02-11 05:23:00,
2013-02-11 00:28:00,41.8,41.3,29.59,SW,215,4.0,4.0,98,0.00,,---,0.00,VWS V14.01,2013-02-11 05:28:00,
2013-02-11 00:33:00,42.2,41.7,29.59,SW,215,5.3,5.3,98,0.00,,---,0.00,VWS V14.01,2013-02-11 05:33:00,
2013-02-11 00:38:00,42.2,41.7,29.59,SW,215,5.3,5.3,98,0.00,,---,0.00,VWS V14.01,2013-02-11 05:38:00,
2013-02-11 00:43:00,42.2,41.7,29.59,SW,215,5.3,5.3,98,0.00,,---,0.00,VWS V14.01,2013-02-11 05:43:00,
2013-02-11 00:48:00,42.2,41.7,29.59,South,170,5.6,5.6,98,0.00,,---,0.00,VWS V14.01,2013-02-11 05:48:00,
2013-02-11 00:53:00,42.2,41.7,29.56,South,170,5.6,5.6,98,0.00,,---,0.00,VWS V14.01,2013-02-11 05:53:00,
2013-02-11 00:58:00,42.0,41.5,29.56,South,170,5.6,5.6,98,0.00,,---,0.00,VWS V14.01,2013-02-11 05:58:00,
2013-02-11 01:03:00,42.2,41.7,29.56,South,170,5.6,5.6,98,0.00,,---,0.00,VWS V14.01,2013-02-11 06:03:00,
2013-02-11 01:09:00,41.8,41.3,29.56,South,170,5.6,5.6,98,0.00,,---,0.00,VWS V14.01,2013-02-11 06:09:00,
2013-02-11 01:14:00,42.4,41.9,29.59,SW,215,6.3,8.6,98,0.00,,---,0.00,VWS V14.01,2013-02-11 06:14:00,
2013-02-11 01:19:00,42.4,41.9,29.56,South,170,11.6,11.6,98,0.00,,---,0.00,VWS V14.01,2013-02-11 06:19:00,
2013-02-11 01:24:00,42.4,41.9,29.56,SW,215,4.3,11.6,98,0.00,,---,0.00,VWS V14.01,2013-02-11 06:24:00,
2013-02-11 01:29:00,42.2,41.7,29.56,SW,215,8.3,8.3,98,0.00,,---,0.00,VWS V14.01,2013-02-11 06:29:00,
2013-02-11 01:34:00,42.2,41.7,29.56,South,170,9.9,9.9,98,0.00,,---,0.00,VWS V14.01,2013-02-11 06:34:00,
2013-02-11 01:39:00,42.4,41.9,29.56,SW,215,5.6,9.6,98,0.00,,---,0.00,VWS V14.01,2013-02-11 06:39:00,
2013-02-11 01:44:00,42.6,42.0,29.56,South,170,4.6,4.6,98,0.00,,---,0.00,VWS V14.01,2013-02-11 06:44:00,
2013-02-11 01:49:00,42.6,42.0,29.56,South,170,6.0,6.0,98,0.00,,---,0.00,VWS V14.01,2013-02-11 06:49:00,
2013-02-11 01:54:00,42.6,42.0,29.56,South,170,6.3,6.3,98,0.00,,---,0.00,VWS V14.01,2013-02-11 06:54:00,
2013-02-11 01:59:00,42.6,42.0,29.56,SW,215,7.0,7.9,98,0.00,,---,0.00,VWS V14.01,2013-02-11 06:59:00,
2013-02-11 02:04:00,42.2,41.7,29.56,SW,215,5.0,5.0,98,0.00,,---,0.00,VWS V14.01,2013-02-11 07:04:00,
2013-02-11 02:09:00,42.4,41.9,29.56,West,260,7.0,7.0,98,0.00,,---,0.00,VWS V14.01,2013-02-11 07:09:00,
2013-02-11 02:14:00,42.2,41.7,29.56,SW,215,2.3,2.3,98,0.00,,---,0.00,VWS V14.01,2013-02-11 07:14:00,
2013-02-11 02:19:00,42.2,41.7,29.56,SW,215,5.0,5.0,98,0.00,,---,0.00,VWS V14.01,2013-02-11 07:19:00,
2013-02-11 02:24:00,42.0,41.5,29.56,SW,215,2.0,3.0,98,0.00,,---,0.00,VWS V14.01,2013-02-11 07:24:00,
2013-02-11 02:29:00,42.2,41.7,29.56,South,170,5.3,5.6,98,0.00,,---,0.00,VWS V14.01,2013-02-11 07:29:00,
2013-02-11 02:34:00,42.2,41.7,29.56,SW,215,4.3,4.3,98,0.00,,---,0.00,VWS V14.01,2013-02-11 07:34:00,
2013-02-11 02:39:00,42.2,41.7,29.56,SW,215,5.0,7.3,98,0.00,,---,0.00,VWS V14.01,2013-02-11 07:39:00,
2013-02-11 02:44:00,42.4,41.9,29.56,SW,215,10.9,10.9,98,0.00,,---,0.00,VWS V14.01,2013-02-11 07:44:00,
2013-02-11 02:49:00,42.9,42.4,29.53,SW,215,4.0,12.6,98,0.00,,---,0.00,VWS V14.01,2013-02-11 07:49:00,
2013-02-11 02:55:00,42.7,42.2,29.53,SW,215,19.2,19.2,98,0.00,,---,0.00,VWS V14.01,2013-02-11 07:55:00,
2013-02-11 03:00:00,43.1,42.3,29.53,SW,215,14.9,19.2,97,0.05,,---,0.05,VWS V14.01,2013-02-11 08:00:00,
2013-02-11 03:05:00,43.1,40.9,29.53,SW,215,10.6,12.6,92,0.05,,---,0.05,VWS V14.01,2013-02-11 08:05:00,
2013-02-11 03:10:00,43.1,40.4,29.56,WSW,238,12.9,13.2,90,0.05,,---,0.05,VWS V14.01,2013-02-11 08:10:00,
2013-02-11 03:15:00,42.7,38.5,29.56,WSW,238,22.9,22.9,85,0.05,,---,0.05,VWS V14.01,2013-02-11 08:15:00,
2013-02-11 03:20:00,43.1,37.0,29.53,SW,215,12.9,13.9,79,0.05,,---,0.05,VWS V14.01,2013-02-11 08:20:00,
2013-02-11 03:25:00,42.9,35.5,29.53,West,260,8.3,11.9,75,0.05,,---,0.05,VWS V14.01,2013-02-11 08:25:00,
2013-02-11 03:30:00,42.7,35.0,29.53,WSW,238,9.3,9.3,74,0.05,,---,0.05,VWS V14.01,2013-02-11 08:30:00,
2013-02-11 03:35:00,42.7,34.3,29.53,West,260,10.6,11.9,72,0.05,,---,0.05,VWS V14.01,2013-02-11 08:35:00,
2013-02-11 03:40:00,42.6,33.8,29.53,SW,215,10.9,11.9,71,0.05,,---,0.05,VWS V14.01,2013-02-11 08:40:00,
2013-02-11 03:45:00,42.7,33.3,29.53,SW,215,9.3,14.2,69,0.05,,---,0.05,VWS V14.01,2013-02-11 08:45:00,
2013-02-11 03:50:00,42.7,32.9,29.53,SW,215,9.3,9.3,68,0.05,,---,0.05,VWS V14.01,2013-02-11 08:50:00,
2013-02-11 03:55:00,42.7,32.9,29.53,SW,215,12.9,17.9,68,0.05,,---,0.05,VWS V14.01,2013-02-11 08:55:00,
2013-02-11 04:00:00,42.4,33.0,29.53,SW,215,15.6,15.6,69,0.00,,---,0.05,VWS V14.01,2013-02-11 09:00:00,
2013-02-11 04:05:00,42.4,32.6,29.53,SW,215,7.3,7.3,68,0.00,,---,0.05,VWS V14.01,2013-02-11 09:05:00,
2013-02-11 04:10:00,42.4,32.2,29.53,West,260,10.9,10.9,67,0.00,,---,0.05,VWS V14.01,2013-02-11 09:10:00,
2013-02-11 04:15:00,42.4,31.5,29.53,SW,215,11.6,18.2,65,0.00,,---,0.05,VWS V14.01,2013-02-11 09:15:00,
2013-02-11 04:20:00,42.2,31.3,29.53,West,260,4.6,12.6,65,0.00,,---,0.05,VWS V14.01,2013-02-11 09:20:00,
2013-02-11 04:25:00,42.0,31.5,29.53,SW,215,9.6,9.6,66,0.00,,---,0.05,VWS V14.01,2013-02-11 09:25:00,
2013-02-11 04:30:00,41.8,31.3,29.53,West,260,9.9,11.6,66,0.00,,---,0.05,VWS V14.01,2013-02-11 09:30:00,
2013-02-11 04:35:00,41.7,31.2,29.53,SW,215,9.6,9.6,66,0.00,,---,0.05,VWS V14.01,2013-02-11 09:35:00,
2013-02-11 04:40:00,41.5,31.0,29.53,SW,215,15.9,15.9,66,0.00,,---,0.05,VWS V14.01,2013-02-11 09:40:00,
2013-02-11 04:45:00,41.5,31.0,29.53,WSW,238,11.9,12.9,66,0.00,,---,0.05,VWS V14.01,2013-02-11 09:45:00,
2013-02-11 04:50:00,41.3,30.4,29.56,SW,215,21.9,21.9,65,0.00,,---,0.05,VWS V14.01,2013-02-11 09:50:00,
2013-02-11 04:55:00,41.3,29.3,29.56,West,260,19.5,19.5,62,0.00,,---,0.05,VWS V14.01,2013-02-11 09:55:00,
2013-02-11 05:01:00,41.1,28.3,29.56,WSW,238,11.3,11.3,60,0.00,,---,0.05,VWS V14.01,2013-02-11 10:01:00,
2013-02-11 05:06:00,41.1,27.5,29.56,WSW,238,9.9,15.6,58,0.00,,---,0.05,VWS V14.01,2013-02-11 10:06:00,
2013-02-11 05:11:00,40.9,27.3,29.56,SW,215,18.2,19.5,58,0.00,,---,0.05,VWS V14.01,2013-02-11 10:11:00,
2013-02-11 05:16:00,40.8,27.1,29.56,West,260,26.8,26.8,58,0.00,,---,0.05,VWS V14.01,2013-02-11 10:16:00,
2013-02-11 05:21:00,40.4,26.4,29.56,SW,215,29.1,29.1,57,0.00,,---,0.05,VWS V14.01,2013-02-11 10:21:00,
2013-02-11 05:26:00,40.4,26.8,29.56,West,260,16.9,16.9,58,0.00,,---,0.05,VWS V14.01,2013-02-11 10:26:00,
2013-02-11 05:31:00,40.2,26.6,29.56,SW,215,21.9,21.9,58,0.00,,---,0.05,VWS V14.01,2013-02-11 10:31:00,
2013-02-11 05:36:00,39.9,27.1,29.56,WSW,238,5.0,6.6,60,0.00,,---,0.05,VWS V14.01,2013-02-11 10:36:00,
2013-02-11 05:41:00,39.3,27.0,29.56,West,260,11.6,18.5,61,0.00,,---,0.05,VWS V14.01,2013-02-11 10:41:00,
2013-02-11 05:46:00,39.0,27.1,29.56,West,260,28.8,28.8,62,0.00,,---,0.05,VWS V14.01,2013-02-11 10:46:00,
2013-02-11 05:51:00,38.4,27.3,29.56,SW,215,8.9,22.9,64,0.00,,---,0.05,VWS V14.01,2013-02-11 10:51:00,
2013-02-11 05:56:00,38.2,27.5,29.56,West,260,12.9,12.9,65,0.00,,---,0.05,VWS V14.01,2013-02-11 10:56:00,
2013-02-11 06:01:00,38.1,27.4,29.56,WSW,238,10.9,15.6,65,0.00,,---,0.05,VWS V14.01,2013-02-11 11:01:00,
2013-02-11 06:06:00,38.1,27.0,29.56,West,260,15.2,15.2,64,0.00,,---,0.05,VWS V14.01,2013-02-11 11:06:00,
2013-02-11 06:11:00,37.7,26.6,29.56,NW,305,15.6,25.5,64,0.00,,---,0.05,VWS V14.01,2013-02-11 11:11:00,
2013-02-11 06:16:00,37.7,26.6,29.56,West,260,13.6,13.6,64,0.00,,---,0.05,VWS V14.01,2013-02-11 11:16:00,
2013-02-11 06:21:00,37.7,26.6,29.56,West,260,10.9,10.9,64,0.00,,---,0.05,VWS V14.01,2013-02-11 11:21:00,
2013-02-11 06:26:00,37.7,26.3,29.56,West,260,15.9,15.9,63,0.00,,---,0.05,VWS V14.01,2013-02-11 11:26:00,
2013-02-11 06:31:00,37.3,26.3,29.56,SW,215,4.0,20.5,64,0.00,,---,0.05,VWS V14.01,2013-02-11 11:31:00,
2013-02-11 06:36:00,37.2,26.1,29.56,West,260,18.9,18.9,64,0.00,,---,0.05,VWS V14.01,2013-02-11 11:36:00,
2013-02-11 06:41:00,37.0,25.6,29.56,West,260,15.2,17.9,63,0.00,,---,0.05,VWS V14.01,2013-02-11 11:41:00,
2013-02-11 06:46:00,36.6,25.6,29.56,West,260,11.9,11.9,64,0.00,,---,0.05,VWS V14.01,2013-02-11 11:46:00,
2013-02-11 06:51:00,36.4,25.4,29.59,West,260,12.9,12.9,64,0.00,,---,0.05,VWS V14.01,2013-02-11 11:51:00,
2013-02-11 06:56:00,36.3,25.3,29.59,WSW,238,12.6,12.6,64,0.00,,---,0.05,VWS V14.01,2013-02-11 11:56:00,
2013-02-11 07:01:00,36.1,25.5,29.59,WSW,238,12.6,12.6,65,0.00,,---,0.05,VWS V14.01,2013-02-11 12:01:00,
2013-02-11 07:07:00,35.9,24.9,29.59,WSW,238,12.6,12.6,64,0.00,,---,0.05,VWS V14.01,2013-02-11 12:07:00,
2013-02-11 07:12:00,35.9,24.9,29.59,WSW,238,12.6,12.6,64,0.00,,---,0.05,VWS V14.01,2013-02-11 12:12:00,
2013-02-11 07:17:00,35.9,24.5,29.59,WSW,238,15.6,15.6,63,0.00,,---,0.05,VWS V14.01,2013-02-11 12:17:00,
2013-02-11 07:22:00,35.7,24.0,29.59,West,260,18.5,18.5,62,0.00,,---,0.05,VWS V14.01,2013-02-11 12:22:00,
2013-02-11 07:27:00,35.5,24.2,29.59,SW,215,11.9,19.2,63,0.00,,---,0.05,VWS V14.01,2013-02-11 12:27:00,
2013-02-11 07:32:00,35.4,24.0,29.59,West,260,21.9,21.9,63,0.00,,---,0.05,VWS V14.01,2013-02-11 12:32:00,
2013-02-11 07:37:00,35.4,24.0,29.59,SW,215,12.6,18.5,63,0.00,,---,0.05,VWS V14.01,2013-02-11 12:37:00,
2013-02-11 07:42:00,35.2,23.9,29.59,West,260,8.3,8.3,63,0.00,,---,0.05,VWS V14.01,2013-02-11 12:42:00,
2013-02-11 07:47:00,35.2,23.5,29.59,SW,215,8.6,11.9,62,0.00,,---,0.05,VWS V14.01,2013-02-11 12:47:00,
2013-02-11 07:52:00,34.8,23.5,29.62,West,260,12.6,12.6,63,0.00,,---,0.05,VWS V14.01,2013-02-11 12:52:00,
2013-02-11 07:57:00,34.8,23.5,29.62,West,260,11.6,13.2,63,0.00,,---,0.05,VWS V14.01,2013-02-11 12:57:00,
2013-02-11 08:02:00,34.6,23.0,29.62,SW,215,22.5,22.5,62,0.00,,---,0.05,VWS V14.01,2013-02-11 13:02:00,
2013-02-11 08:07:00,34.5,23.2,29.62,West,260,11.3,12.9,63,0.00,,---,0.05,VWS V14.01,2013-02-11 13:07:00,
2013-02-11 08:12:00,34.5,23.6,29.62,West,260,9.6,19.2,64,0.00,,---,0.05,VWS V14.01,2013-02-11 13:12:00,
2013-02-11 08:17:00,34.1,23.6,29.62,West,260,15.6,19.2,65,0.00,,---,0.05,VWS V14.01,2013-02-11 13:17:00,
2013-02-11 08:22:00,34.1,23.2,29.62,SW,215,15.6,15.6,64,0.00,,---,0.05,VWS V14.01,2013-02-11 13:22:00,
2013-02-11 08:28:00,33.9,23.0,29.62,SW,215,11.6,18.9,64,0.00,,---,0.05,VWS V14.01,2013-02-11 13:28:00,
2013-02-11 08:33:00,33.9,23.0,29.62,SW,215,11.9,21.2,64,0.00,,---,0.05,VWS V14.01,2013-02-11 13:33:00,
2013-02-11 08:38:00,33.7,23.2,29.62,West,260,17.9,17.9,65,0.00,,---,0.05,VWS V14.01,2013-02-11 13:38:00,
2013-02-11 08:43:00,33.7,23.6,29.62,WSW,238,18.5,18.5,66,0.00,,---,0.05,VWS V14.01,2013-02-11 13:43:00,
2013-02-11 08:48:00,33.6,23.8,29.62,SW,215,9.6,9.6,67,0.00,,---,0.05,VWS V14.01,2013-02-11 13:48:00,
2013-02-11 08:53:00,33.4,24.0,29.62,West,260,18.2,19.2,68,0.00,,---,0.05,VWS V14.01,2013-02-11 13:53:00,
2013-02-11 08:58:00,33.4,24.0,29.62,West,260,25.2,25.2,68,0.00,,---,0.05,VWS V14.01,2013-02-11 13:58:00,
2013-02-11 09:03:00,33.2,22.7,29.62,West,260,18.5,18.5,65,0.00,,---,0.05,VWS V14.01,2013-02-11 14:03:00,
2013-02-11 09:08:00,33.2,22.4,29.62,SW,215,11.6,11.6,64,0.00,,---,0.05,VWS V14.01,2013-02-11 14:08:00,
2013-02-11 09:13:00,33.2,22.4,29.62,West,260,12.6,18.9,64,0.00,,---,0.05,VWS V14.01,2013-02-11 14:13:00,
2013-02-11 09:18:00,33.2,21.6,29.62,SW,215,11.3,20.2,62,0.00,,---,0.05,VWS V14.01,2013-02-11 14:18:00,
2013-02-11 09:23:00,33.0,21.8,29.62,SW,215,9.6,9.6,63,0.00,,---,0.05,VWS V14.01,2013-02-11 14:23:00,
2013-02-11 09:28:00,33.0,21.8,29.62,WSW,238,15.6,15.9,63,0.00,,---,0.05,VWS V14.01,2013-02-11 14:28:00,
2013-02-11 09:33:00,33.0,21.4,29.62,West,260,9.6,17.6,62,0.00,,---,0.05,VWS V14.01,2013-02-11 14:33:00,
2013-02-11 09:38:00,33.2,21.6,29.62,West,260,10.9,11.9,62,0.00,,---,0.05,VWS V14.01,2013-02-11 14:38:00,
2013-02-11 09:44:00,33.2,21.6,29.62,SW,215,11.6,19.5,62,0.00,,---,0.05,VWS V14.01,2013-02-11 14:44:00,
2013-02-11 09:49:00,33.2,21.6,29.62,West,260,15.6,15.6,62,0.00,,---,0.05,VWS V14.01,2013-02-11 14:49:00,
2013-02-11 09:54:00,33.2,20.8,29.62,SW,215,22.5,22.5,60,0.00,,---,0.05,VWS V14.01,2013-02-11 14:54:00,
2013-02-11 09:59:00,33.2,20.4,29.62,West,260,15.6,17.9,59,0.00,,---,0.05,VWS V14.01,2013-02-11 14:59:00,
2013-02-11 10:04:00,33.2,20.4,29.62,SW,215,12.9,12.9,59,0.00,,---,0.05,VWS V14.01,2013-02-11 15:04:00,
2013-02-11 10:09:00,33.4,20.6,29.62,SW,215,23.2,23.2,59,0.00,,---,0.05,VWS V14.01,2013-02-11 15:09:00,
2013-02-11 10:14:00,33.4,20.2,29.62,SW,215,20.9,20.9,58,0.00,,---,0.05,VWS V14.01,2013-02-11 15:14:00,
2013-02-11 10:19:00,33.6,20.4,29.62,SW,215,11.3,15.2,58,0.00,,---,0.05,VWS V14.01,2013-02-11 15:19:00,
2013-02-11 10:24:00,33.6,20.0,29.62,SW,215,11.6,13.9,57,0.00,,---,0.05,VWS V14.01,2013-02-11 15:24:00,
2013-02-11 10:29:00,33.7,20.1,29.62,SW,215,18.9,18.9,57,0.00,,---,0.05,VWS V14.01,2013-02-11 15:29:00,
2013-02-11 10:34:00,33.7,20.1,29.62,SW,215,17.9,25.8,57,0.00,,---,0.05,VWS V14.01,2013-02-11 15:34:00,
2013-02-11 10:39:00,33.7,19.7,29.62,West,260,18.5,22.9,56,0.00,,---,0.05,VWS V14.01,2013-02-11 15:39:00,
2013-02-11 10:44:00,33.7,20.1,29.62,SW,215,16.2,16.2,57,0.00,,---,0.05,VWS V14.01,2013-02-11 15:44:00,
2013-02-11 10:49:00,33.7,19.7,29.62,SW,215,18.5,18.5,56,0.00,,---,0.05,VWS V14.01,2013-02-11 15:49:00,
2013-02-11 10:54:00,33.7,19.7,29.62,SW,215,15.2,18.5,56,0.00,,---,0.05,VWS V14.01,2013-02-11 15:54:00,
2013-02-11 10:59:00,33.6,19.6,29.62,SW,215,15.2,19.2,56,0.00,,---,0.05,VWS V14.01,2013-02-11 15:59:00,
2013-02-11 11:04:00,33.6,19.6,29.62,SW,215,9.6,19.5,56,0.00,,---,0.05,VWS V14.01,2013-02-11 16:04:00,
2013-02-11 11:10:00,33.6,20.0,29.62,SW,215,11.6,16.6,57,0.00,,---,0.05,VWS V14.01,2013-02-11 16:10:00,
2013-02-11 11:15:00,33.6,20.0,29.62,SW,215,15.6,15.6,57,0.00,,---,0.05,VWS V14.01,2013-02-11 16:15:00,
2013-02-11 11:20:00,33.6,20.0,29.65,SW,215,18.2,18.2,57,0.00,,---,0.05,VWS V14.01,2013-02-11 16:20:00,
2013-02-11 11:25:00,33.4,19.8,29.65,West,260,15.2,18.2,57,0.00,,---,0.05,VWS V14.01,2013-02-11 16:25:00,
2013-02-11 11:30:00,33.4,20.6,29.65,West,260,12.9,12.9,59,0.00,,---,0.05,VWS V14.01,2013-02-11 16:30:00,
2013-02-11 11:35:00,33.2,20.8,29.65,WSW,238,15.6,21.9,60,0.00,,---,0.05,VWS V14.01,2013-02-11 16:35:00,
2013-02-11 11:40:00,33.0,21.4,29.65,SW,215,17.9,18.9,62,0.00,,---,0.05,VWS V14.01,2013-02-11 16:40:00,
2013-02-11 11:45:00,32.8,21.6,29.65,WSW,238,10.6,11.6,63,0.00,,---,0.05,VWS V14.01,2013-02-11 16:45:00,
2013-02-11 11:50:00,32.8,22.0,29.65,SW,215,18.9,18.9,64,0.00,,---,0.05,VWS V14.01,2013-02-11 16:50:00,
2013-02-11 11:55:00,32.8,22.4,29.65,SW,215,8.9,11.3,65,0.00,,---,0.05,VWS V14.01,2013-02-11 16:55:00,
2013-02-11 12:00:00,32.8,22.7,29.65,WSW,238,11.3,17.9,66,0.00,,---,0.05,VWS V14.01,2013-02-11 17:00:00,
2013-02-11 12:05:00,32.7,22.9,29.65,West,260,9.6,14.6,67,0.00,,---,0.05,VWS V14.01,2013-02-11 17:05:00,
2013-02-11 12:10:00,32.7,23.6,29.65,West,260,19.5,19.5,69,0.00,,---,0.05,VWS V14.01,2013-02-11 17:10:00,
2013-02-11 12:15:00,32.5,23.8,29.65,West,260,21.9,30.1,70,0.00,,---,0.05,VWS V14.01,2013-02-11 17:15:00,
2013-02-11 12:20:00,32.3,24.6,29.65,WSW,238,21.9,27.5,73,0.00,,---,0.05,VWS V14.01,2013-02-11 17:20:00,
2013-02-11 12:25:00,32.5,25.1,29.65,West,260,15.9,15.9,74,0.00,,---,0.05,VWS V14.01,2013-02-11 17:25:00,
2013-02-11 12:30:00,32.3,25.3,29.65,West,260,23.2,23.2,75,0.00,,---,0.05,VWS V14.01,2013-02-11 17:30:00,
2013-02-11 12:36:00,32.5,25.5,29.68,West,260,18.5,18.5,75,0.00,,---,0.05,VWS V14.01,2013-02-11 17:36:00,
2013-02-11 12:41:00,32.5,25.1,29.68,SW,215,9.3,18.9,74,0.00,,---,0.05,VWS V14.01,2013-02-11 17:41:00,
2013-02-11 12:46:00,32.5,25.5,29.68,South,170,15.9,15.9,75,0.00,,---,0.05,VWS V14.01,2013-02-11 17:46:00,
2013-02-11 12:51:00,32.5,25.5,29.65,SW,215,18.2,18.9,75,0.00,,---,0.05,VWS V14.01,2013-02-11 17:51:00,
2013-02-11 12:56:00,32.5,25.5,29.65,West,260,14.9,14.9,75,0.00,,---,0.05,VWS V14.01,2013-02-11 17:56:00,
2013-02-11 13:01:00,32.5,25.5,29.65,West,260,19.2,19.2,75,0.00,,---,0.05,VWS V14.01,2013-02-11 18:01:00,
2013-02-11 13:06:00,32.5,25.8,29.68,West,260,19.2,19.2,76,0.00,,---,0.05,VWS V14.01,2013-02-11 18:06:00,
2013-02-11 13:11:00,32.3,26.2,29.68,West,260,11.9,22.9,78,0.00,,---,0.05,VWS V14.01,2013-02-11 18:11:00,
2013-02-11 13:16:00,32.1,26.0,29.68,SW,215,15.6,15.6,78,0.00,,---,0.05,VWS V14.01,2013-02-11 18:16:00,
2013-02-11 13:21:00,32.5,26.4,29.68,West,260,19.5,19.5,78,0.00,,---,0.05,VWS V14.01,2013-02-11 18:21:00,
2013-02-11 13:26:00,32.5,26.1,29.68,West,260,9.6,16.2,77,0.00,,---,0.05,VWS V14.01,2013-02-11 18:26:00,
2013-02-11 13:31:00,32.5,25.8,29.68,WSW,238,4.3,15.6,76,0.00,,---,0.05,VWS V14.01,2013-02-11 18:31:00,
2013-02-11 13:36:00,32.5,25.5,29.68,SW,215,17.9,17.9,75,0.00,,---,0.05,VWS V14.01,2013-02-11 18:36:00,
2013-02-11 13:41:00,32.3,25.0,29.68,SW,215,11.6,11.6,74,0.00,,---,0.05,VWS V14.01,2013-02-11 18:41:00,
2013-02-11 13:46:00,32.3,25.0,29.68,SW,215,11.9,11.9,74,0.00,,---,0.05,VWS V14.01,2013-02-11 18:46:00,
2013-02-11 13:51:00,32.3,24.6,29.68,West,260,15.9,21.5,73,0.00,,---,0.05,VWS V14.01,2013-02-11 18:51:00,
2013-02-11 13:56:00,32.3,24.6,29.68,South,170,9.6,9.6,73,0.00,,---,0.05,VWS V14.01,2013-02-11 18:56:00,
2013-02-11 14:01:00,32.3,24.3,29.68,SW,215,11.3,15.6,72,0.00,,---,0.05,VWS V14.01,2013-02-11 19:01:00,
2013-02-11 14:06:00,32.5,23.8,29.68,SW,215,25.2,25.2,70,0.00,,---,0.05,VWS V14.01,2013-02-11 19:06:00,
2013-02-11 14:11:00,32.5,23.8,29.68,WSW,238,19.5,22.9,70,0.00,,---,0.05,VWS V14.01,2013-02-11 19:11:00,
2013-02-11 14:16:00,32.5,23.5,29.68,WSW,238,15.2,21.5,69,0.00,,---,0.05,VWS V14.01,2013-02-11 19:16:00,
2013-02-11 14:21:00,32.5,23.1,29.71,West,260,37.8,37.8,68,0.00,,---,0.05,VWS V14.01,2013-02-11 19:21:00,
2013-02-11 14:27:00,32.5,23.1,29.71,SW,215,22.9,22.9,68,0.00,,---,0.05,VWS V14.01,2013-02-11 19:27:00,
2013-02-11 14:32:00,32.5,22.8,29.71,SW,215,11.3,15.9,67,0.00,,---,0.05,VWS V14.01,2013-02-11 19:32:00,
2013-02-11 14:37:00,32.5,22.8,29.71,WSW,238,23.5,23.5,67,0.00,,---,0.05,VWS V14.01,2013-02-11 19:37:00,
2013-02-11 14:42:00,32.5,22.8,29.71,West,260,15.6,15.6,67,0.00,,---,0.05,VWS V14.01,2013-02-11 19:42:00,
2013-02-11 14:47:00,32.5,23.1,29.71,West,260,9.3,10.6,68,0.00,,---,0.05,VWS V14.01,2013-02-11 19:47:00,
2013-02-11 14:52:00,32.5,23.1,29.71,West,260,20.5,20.5,68,0.00,,---,0.05,VWS V14.01,2013-02-11 19:52:00,
2013-02-11 14:57:00,32.5,23.1,29.71,West,260,14.9,14.9,68,0.00,,---,0.05,VWS V14.01,2013-02-11 19:57:00,
2013-02-11 15:02:00,32.5,23.1,29.71,West,260,14.6,14.6,68,0.00,,---,0.05,VWS V14.01,2013-02-11 20:02:00,
2013-02-11 15:07:00,32.5,23.1,29.71,West,260,20.9,20.9,68,0.00,,---,0.05,VWS V14.01,2013-02-11 20:07:00,
2013-02-11 15:12:00,32.5,23.5,29.71,SW,215,14.6,18.5,69,0.00,,---,0.05,VWS V14.01,2013-02-11 20:12:00,
2013-02-11 15:17:00,32.5,23.5,29.71,West,260,18.5,26.8,69,0.00,,---,0.05,VWS V14.01,2013-02-11 20:17:00,
2013-02-11 15:22:00,32.5,23.5,29.74,WSW,238,22.5,22.5,69,0.00,,---,0.05,VWS V14.01,2013-02-11 20:22:00,
2013-02-11 15:27:00,32.5,23.5,29.74,SW,215,19.5,20.9,69,0.00,,---,0.05,VWS V14.01,2013-02-11 20:27:00,
2013-02-11 15:32:00,32.5,23.5,29.74,WSW,238,19.5,19.5,69,0.00,,---,0.05,VWS V14.01,2013-02-11 20:32:00,
2013-02-11 15:37:00,32.5,23.5,29.74,West,260,11.9,21.5,69,0.00,,---,0.05,VWS V14.01,2013-02-11 20:37:00,
2013-02-11 15:42:00,32.5,23.5,29.74,NW,305,12.6,15.6,69,0.00,,---,0.05,VWS V14.01,2013-02-11 20:42:00,
2013-02-11 15:47:00,32.5,23.5,29.74,West,260,26.5,26.5,69,0.00,,---,0.05,VWS V14.01,2013-02-11 20:47:00,
2013-02-11 15:52:00,32.5,23.5,29.74,West,260,21.9,21.9,69,0.00,,---,0.05,VWS V14.01,2013-02-11 20:52:00,
2013-02-11 15:57:00,32.5,23.5,29.74,SW,215,5.6,26.2,69,0.00,,---,0.05,VWS V14.01,2013-02-11 20:57:00,
2013-02-11 16:03:00,32.5,23.5,29.74,West,260,15.6,22.5,69,0.00,,---,0.05,VWS V14.01,2013-02-11 21:03:00,
2013-02-11 16:08:00,32.3,23.3,29.74,SW,215,15.6,21.5,69,0.00,,---,0.05,VWS V14.01,2013-02-11 21:08:00,
2013-02-11 16:13:00,32.3,23.3,29.74,West,260,12.9,18.2,69,0.00,,---,0.05,VWS V14.01,2013-02-11 21:13:00,
2013-02-11 16:18:00,32.3,23.3,29.74,West,260,27.5,27.5,69,0.00,,---,0.05,VWS V14.01,2013-02-11 21:18:00,
2013-02-11 16:23:00,32.1,23.1,29.74,West,260,22.9,22.9,69,0.00,,---,0.05,VWS V14.01,2013-02-11 21:23:00,
2013-02-11 16:28:00,32.1,23.1,29.74,West,260,8.9,8.9,69,0.00,,---,0.05,VWS V14.01,2013-02-11 21:28:00,
2013-02-11 16:33:00,32.1,23.1,29.74,WSW,238,11.6,14.6,69,0.00,,---,0.05,VWS V14.01,2013-02-11 21:33:00,
2013-02-11 16:38:00,31.9,22.9,29.76,NW,305,8.6,8.6,69,0.00,,---,0.05,VWS V14.01,2013-02-11 21:38:00,
2013-02-11 16:43:00,31.9,23.3,29.76,West,260,15.6,15.6,70,0.00,,---,0.05,VWS V14.01,2013-02-11 21:43:00,
2013-02-11 16:48:00,31.9,22.6,29.76,WSW,238,10.3,19.2,68,0.00,,---,0.05,VWS V14.01,2013-02-11 21:48:00,
2013-02-11 16:53:00,31.9,22.6,29.76,West,260,15.6,29.5,68,0.00,,---,0.05,VWS V14.01,2013-02-11 21:53:00,
2013-02-11 16:58:00,31.8,22.4,29.76,WNW,282,18.5,18.5,68,0.00,,---,0.05,VWS V14.01,2013-02-11 21:58:00,
2013-02-11 17:03:00,31.8,22.4,29.76,West,260,16.6,16.6,68,0.00,,---,0.05,VWS V14.01,2013-02-11 22:03:00,
2013-02-11 17:08:00,31.6,22.2,29.76,WSW,238,42.7,42.7,68,0.00,,---,0.05,VWS V14.01,2013-02-11 22:08:00,
2013-02-11 17:13:00,31.4,22.8,29.76,West,260,8.9,18.5,70,0.00,,---,0.05,VWS V14.01,2013-02-11 22:13:00,
2013-02-11 17:18:00,31.4,22.8,29.76,West,260,25.2,25.2,70,0.00,,---,0.05,VWS V14.01,2013-02-11 22:18:00,
2013-02-11 17:24:00,31.4,22.8,29.76,West,260,18.9,18.9,70,0.00,,---,0.05,VWS V14.01,2013-02-11 22:24:00,
2013-02-11 17:29:00,31.4,22.8,29.76,WSW,238,7.3,7.3,70,0.00,,---,0.05,VWS V14.01,2013-02-11 22:29:00,
2013-02-11 17:34:00,31.4,22.4,29.76,WSW,238,7.3,7.3,69,0.00,,---,0.05,VWS V14.01,2013-02-11 22:34:00,
2013-02-11 17:39:00,31.4,22.4,29.79,WSW,238,7.3,7.3,69,0.00,,---,0.05,VWS V14.01,2013-02-11 22:39:00,
2013-02-11 17:44:00,31.4,22.1,29.79,WSW,238,7.3,7.3,68,0.00,,---,0.05,VWS V14.01,2013-02-11 22:44:00,
2013-02-11 17:49:00,31.2,21.9,29.79,WSW,238,7.3,7.3,68,0.00,,---,0.05,VWS V14.01,2013-02-11 22:49:00,
2013-02-11 17:54:00,31.2,21.5,29.79,WSW,238,7.3,7.3,67,0.00,,---,0.05,VWS V14.01,2013-02-11 22:54:00,
2013-02-11 17:59:00,31.2,21.9,29.79,North,350,8.9,8.9,68,0.00,,---,0.05,VWS V14.01,2013-02-11 22:59:00,
2013-02-11 18:04:00,31.2,21.5,29.79,North,350,8.9,8.9,67,0.00,,---,0.05,VWS V14.01,2013-02-11 23:04:00,
2013-02-11 18:09:00,31.0,21.7,29.79,West,260,14.2,14.2,68,0.00,,---,0.05,VWS V14.01,2013-02-11 23:09:00,
2013-02-11 18:14:00,31.0,21.4,29.79,West,260,14.2,14.2,67,0.00,,---,0.05,VWS V14.01,2013-02-11 23:14:00,
2013-02-11 18:19:00,31.0,21.4,29.82,West,260,14.2,14.2,67,0.00,,---,0.05,VWS V14.01,2013-02-11 23:19:00,
2013-02-11 18:24:00,31.0,21.4,29.82,West,260,14.2,14.2,67,0.00,,---,0.05,VWS V14.01,2013-02-11 23:24:00,
2013-02-11 18:29:00,30.9,21.2,29.82,West,260,16.2,16.2,67,0.00,,---,0.05,VWS V14.01,2013-02-11 23:29:00,
2013-02-11 18:34:00,30.9,21.2,29.82,West,260,21.9,21.9,67,0.00,,---,0.05,VWS V14.01,2013-02-11 23:34:00,
2013-02-11 18:40:00,30.9,21.2,29.82,West,260,18.9,18.9,67,0.00,,---,0.05,VWS V14.01,2013-02-11 23:40:00,
2013-02-11 18:45:00,30.7,20.7,29.82,West,260,18.9,18.9,66,0.00,,---,0.05,VWS V14.01,2013-02-11 23:45:00,
2013-02-11 18:50:00,30.7,21.0,29.82,West,260,18.9,18.9,67,0.00,,---,0.05,VWS V14.01,2013-02-11 23:50:00,
2013-02-11 18:55:00,30.5,20.9,29.82,West,260,18.9,18.9,67,0.00,,---,0.05,VWS V14.01,2013-02-11 23:55:00,
2013-02-11 19:00:00,30.5,21.2,29.82,West,260,18.9,18.9,68,0.00,,---,0.00,VWS V14.01,2013-02-12 00:00:00,
2013-02-11 19:05:00,30.5,21.2,29.85,WNW,282,4.0,4.0,68,0.00,,---,0.05,VWS V14.01,2013-02-12 00:05:00,
2013-02-11 19:10:00,30.3,21.0,29.85,WNW,282,4.0,4.0,68,0.00,,---,0.05,VWS V14.01,2013-02-12 00:10:00,
2013-02-11 19:15:00,30.3,21.4,29.85,SW,215,15.6,15.6,69,0.00,,---,0.05,VWS V14.01,2013-02-12 00:15:00,
2013-02-11 19:20:00,30.3,21.4,29.85,West,260,14.9,14.9,69,0.00,,---,0.05,VWS V14.01,2013-02-12 00:20:00,
2013-02-11 19:25:00,30.3,21.4,29.85,West,260,14.9,14.9,69,0.00,,---,0.05,VWS V14.01,2013-02-12 00:25:00,
2013-02-11 19:30:00,30.3,21.7,29.85,NW,305,15.2,15.2,70,0.00,,---,0.05,VWS V14.01,2013-02-12 00:30:00,
2013-02-11 19:35:00,30.3,21.7,29.85,West,260,8.9,8.9,70,0.00,,---,0.05,VWS V14.01,2013-02-12 00:35:00,
2013-02-11 19:40:00,30.1,21.5,29.85,West,260,8.9,8.9,70,0.00,,---,0.05,VWS V14.01,2013-02-12 00:40:00,
2013-02-11 19:46:00,30.1,21.5,29.85,West,260,8.9,8.9,70,0.00,,---,0.05,VWS V14.01,2013-02-12 00:46:00,
2013-02-11 19:51:00,30.1,21.5,29.85,West,260,8.9,8.9,70,0.00,,---,0.05,VWS V14.01,2013-02-12 00:51:00,
2013-02-11 19:56:00,30.1,21.5,29.85,West,260,8.9,8.9,70,0.00,,---,0.05,VWS V14.01,2013-02-12 00:56:00,
2013-02-11 20:01:00,30.0,21.4,29.85,West,260,8.9,8.9,70,0.00,,---,0.05,VWS V14.01,2013-02-12 01:01:00,
2013-02-11 20:06:00,30.0,21.0,29.85,West,260,8.9,8.9,69,0.00,,---,0.05,VWS V14.01,2013-02-12 01:06:00,
2013-02-11 20:11:00,30.0,21.0,29.85,West,260,8.9,8.9,69,0.00,,---,0.05,VWS V14.01,2013-02-12 01:11:00,
2013-02-11 20:16:00,30.0,21.0,29.85,West,260,8.9,8.9,69,0.00,,---,0.05,VWS V14.01,2013-02-12 01:16:00,
2013-02-11 20:21:00,30.0,21.4,29.85,West,260,8.9,8.9,70,0.00,,---,0.05,VWS V14.01,2013-02-12 01:21:00,
2013-02-11 20:26:00,29.8,21.2,29.85,NW,305,12.6,12.6,70,0.00,,---,0.05,VWS V14.01,2013-02-12 01:26:00,
2013-02-11 20:31:00,29.8,21.2,29.85,West,260,8.6,12.6,70,0.00,,---,0.05,VWS V14.01,2013-02-12 01:31:00,
2013-02-11 20:36:00,29.8,20.9,29.85,West,260,8.6,8.6,69,0.00,,---,0.05,VWS V14.01,2013-02-12 01:36:00,
2013-02-11 20:41:00,29.8,20.9,29.85,West,260,8.6,8.6,69,0.00,,---,0.05,VWS V14.01,2013-02-12 01:41:00,
2013-02-11 20:46:00,29.8,20.5,29.85,West,260,8.6,8.6,68,0.00,,---,0.05,VWS V14.01,2013-02-12 01:46:00,
2013-02-11 20:52:00,29.8,20.2,29.85,West,260,8.6,8.6,67,0.00,,---,0.05,VWS V14.01,2013-02-12 01:52:00,
2013-02-11 20:57:00,29.8,20.2,29.85,West,260,8.6,8.6,67,0.00,,---,0.05,VWS V14.01,2013-02-12 01:57:00,
2013-02-11 21:02:00,29.8,20.2,29.85,West,260,8.6,8.6,67,0.00,,---,0.05,VWS V14.01,2013-02-12 02:02:00,
2013-02-11 21:07:00,29.8,20.2,29.85,West,260,8.6,8.6,67,0.00,,---,0.05,VWS V14.01,2013-02-12 02:07:00,
2013-02-11 21:12:00,29.8,20.2,29.85,West,260,8.6,8.6,67,0.00,,---,0.05,VWS V14.01,2013-02-12 02:12:00,
2013-02-11 21:17:00,29.8,19.8,29.85,West,260,8.6,8.6,66,0.00,,---,0.05,VWS V14.01,2013-02-12 02:17:00,
2013-02-11 21:22:00,29.6,20.0,29.85,WSW,238,4.3,4.3,67,0.00,,---,0.05,VWS V14.01,2013-02-12 02:22:00,
2013-02-11 21:27:00,29.6,20.0,29.85,WSW,238,4.3,4.3,67,0.00,,---,0.05,VWS V14.01,2013-02-12 02:27:00,
2013-02-11 21:32:00,29.6,20.0,29.85,WSW,238,4.3,4.3,67,0.00,,---,0.05,VWS V14.01,2013-02-12 02:32:00,
2013-02-11 21:37:00,29.6,20.0,29.88,North,350,6.0,11.9,67,0.00,,---,0.05,VWS V14.01,2013-02-12 02:37:00,
2013-02-11 21:42:00,29.6,20.0,29.88,West,260,15.2,15.2,67,0.00,,---,0.05,VWS V14.01,2013-02-12 02:42:00,
2013-02-11 21:47:00,29.6,20.0,29.88,West,260,9.3,9.3,67,0.00,,---,0.05,VWS V14.01,2013-02-12 02:47:00,
2013-02-11 21:52:00,29.6,19.6,29.88,West,260,9.3,9.3,66,0.00,,---,0.05,VWS V14.01,2013-02-12 02:52:00,
2013-02-11 21:57:00,29.6,19.6,29.88,West,260,9.3,9.3,66,0.00,,---,0.05,VWS V14.01,2013-02-12 02:57:00,
2013-02-11 22:02:00,29.6,19.6,29.88,West,260,9.3,9.3,66,0.00,,---,0.05,VWS V14.01,2013-02-12 03:02:00,
2013-02-11 22:07:00,29.6,20.0,29.88,West,260,9.3,9.3,67,0.00,,---,0.05,VWS V14.01,2013-02-12 03:07:00,
2013-02-11 22:12:00,29.6,19.6,29.88,West,260,9.3,9.3,66,0.00,,---,0.05,VWS V14.01,2013-02-12 03:12:00,
2013-02-11 22:17:00,29.6,19.6,29.88,West,260,9.3,9.3,66,0.00,,---,0.05,VWS V14.01,2013-02-12 03:17:00,
2013-02-11 22:22:00,29.6,19.6,29.88,West,260,10.9,10.9,66,0.00,,---,0.05,VWS V14.01,2013-02-12 03:22:00,
2013-02-11 22:27:00,29.6,19.6,29.88,West,260,10.9,10.9,66,0.00,,---,0.05,VWS V14.01,2013-02-12 03:27:00,
2013-02-11 22:32:00,29.6,19.6,29.88,North,350,7.9,7.9,66,0.00,,---,0.05,VWS V14.01,2013-02-12 03:32:00,
2013-02-11 22:37:00,29.4,19.5,29.88,North,350,7.9,7.9,66,0.00,,---,0.05,VWS V14.01,2013-02-12 03:37:00,
2013-02-11 22:42:00,29.4,19.5,29.88,North,350,7.9,7.9,66,0.00,,---,0.05,VWS V14.01,2013-02-12 03:42:00,
2013-02-11 22:47:00,29.4,19.5,29.88,North,350,7.9,7.9,66,0.00,,---,0.05,VWS V14.01,2013-02-12 03:47:00,
2013-02-11 22:53:00,29.4,19.8,29.88,North,350,7.9,7.9,67,0.00,,---,0.05,VWS V14.01,2013-02-12 03:53:00,
2013-02-11 22:58:00,29.4,19.8,29.88,North,350,7.9,7.9,67,0.00,,---,0.05,VWS V14.01,2013-02-12 03:58:00,
2013-02-11 23:03:00,29.4,19.8,29.88,North,350,7.9,7.9,67,0.00,,---,0.05,VWS V14.01,2013-02-12 04:03:00,
2013-02-11 23:08:00,29.4,19.8,29.88,North,350,7.9,7.9,67,0.00,,---,0.05,VWS V14.01,2013-02-12 04:08:00,
2013-02-11 23:13:00,29.4,19.8,29.88,North,350,7.9,7.9,67,0.00,,---,0.05,VWS V14.01,2013-02-12 04:13:00,
2013-02-11 23:18:00,29.4,19.8,29.88,North,350,7.9,7.9,67,0.00,,---,0.05,VWS V14.01,2013-02-12 04:18:00,
2013-02-11 23:23:00,29.4,19.8,29.88,North,350,7.9,7.9,67,0.00,,---,0.05,VWS V14.01,2013-02-12 04:23:00,
2013-02-11 23:28:00,29.2,20.0,29.88,North,350,7.9,7.9,68,0.00,,---,0.05,VWS V14.01,2013-02-12 04:28:00,
2013-02-11 23:33:00,29.2,20.0,29.88,WNW,282,10.9,10.9,68,0.00,,---,0.05,VWS V14.01,2013-02-12 04:33:00,
2013-02-11 23:38:00,29.2,20.0,29.88,West,260,12.6,12.6,68,0.00,,---,0.05,VWS V14.01,2013-02-12 04:38:00,
2013-02-11 23:43:00,29.2,20.0,29.88,West,260,5.0,5.0,68,0.00,,---,0.05,VWS V14.01,2013-02-12 04:43:00,
2013-02-11 23:48:00,29.2,20.0,29.88,West,260,5.0,5.0,68,0.00,,---,0.05,VWS V14.01,2013-02-12 04:48:00,
2013-02-11 23:53:00,29.2,20.0,29.91,West,260,5.0,5.0,68,0.00,,---,0.05,VWS V14.01,2013-02-12 04:53:00,
2013-02-11 23:58:00,29.2,20.0,29.91,West,260,5.0,5.0,68,0.00,,---,0.05,VWS V14.01,2013-02-12 04:58:00,